This is the latest recevied weather packets stored in our database for station/object KY0TEQ-13. If no packets are shown the sender has not sent any weather packets the latest 10 day(s).
| Time | Temp. | Humidity | Pressure | Rain* | Wind** | Luminosity | Snow |
|---|---|---|---|---|---|---|---|
| 1788148922 | 60° F | 65% | 983.3 mmHg | 0 in | - | 0 W/m² | - |
| 1788148621 | 59° F | 65% | 983.2 mmHg | 0 in | - | 0 W/m² | - |
| 1788148315 | 61° F | 64% | 983.2 mmHg | 0 in | - | 0 W/m² | - |
| 1788148014 | 61° F | 61% | 983.2 mmHg | 0 in | - | 0 W/m² | - |
| 1788147710 | 61° F | 61% | 983.1 mmHg | 0 in | - | 0 W/m² | - |
| 1788147405 | 61° F | 62% | 983.2 mmHg | 0 in | - | 0 W/m² | - |
| 1788147100 | 61° F | 62% | 983 mmHg | 0 in | - | 0 W/m² | - |
| 1788146800 | 61° F | 64% | 983 mmHg | 0 in | - | 0 W/m² | - |
| 1788146496 | 61° F | 65% | 983 mmHg | 0 in | - | 0 W/m² | - |
| 1788146191 | 60° F | 65% | 983 mmHg | 0 in | - | 0 W/m² | - |
| 1788145890 | 60° F | 68% | 983 mmHg | 0 in | - | 0 W/m² | - |
| 1788145589 | 60° F | 68% | 982.7 mmHg | 0 in | - | 0 W/m² | - |
| 1788145288 | 60° F | 69% | 982.7 mmHg | 0 in | - | 0 W/m² | - |
| 1788144987 | 60° F | 70% | 982.6 mmHg | 0 in | - | 0 W/m² | - |
| 1788144682 | 60° F | 71% | 982.6 mmHg | 0 in | - | 0 W/m² | - |
| 1788144378 | 61° F | 70% | 982.7 mmHg | 0 in | - | 0 W/m² | - |
| 1788144076 | 60° F | 71% | 982.5 mmHg | 0 in | - | 0 W/m² | - |
| 1788143775 | 60° F | 74% | 982.1 mmHg | 0.05 in | - | 0 W/m² | - |
| 1788143474 | 61° F | 74% | 982.4 mmHg | 0.05 in | - | 0 W/m² | - |
| 1788143169 | 63° F | 69% | 982.6 mmHg | 0 in | - | 0 W/m² | - |
| 1788142864 | 65° F | 57% | 983 mmHg | 0 in | - | 0 W/m² | - |
| 1788142562 | 66° F | 55% | 982.6 mmHg | 0 in | - | 0 W/m² | - |
| 1788142258 | 65° F | 52% | 982.1 mmHg | 0 in | - | 0 W/m² | - |
| 1788141954 | 64° F | 53% | 981.5 mmHg | 0 in | - | 0 W/m² | - |
| 1788141648 | 65° F | 55% | 981.2 mmHg | 0 in | - | 0 W/m² | - |
* Rain latest hour (hover to see other rain measurements)
** Current wind speed in m/s (hover to see current wind gust speed)